This is the latest recevied weather packets stored in our database for station/object W6JCZ-13. If no packets are shown the sender has not sent any weather packets the latest 10 day(s).
| Time | Temp. | Humidity | Pressure | Rain* | Wind** | Luminosity | Snow |
|---|---|---|---|---|---|---|---|
| 1778166917 | 15° C | 85% | 1017.1 hPa | 0 mm | - | - | - |
| 1778166317 | 14.44° C | 89% | 1017 hPa | 0 mm | - | - | - |
| 1778165717 | 13.89° C | 90% | 1017.1 hPa | 0 mm | - | - | - |
| 1778165117 | 13.33° C | 91% | 1017 hPa | 0 mm | - | - | - |
| 1778164517 | 12.78° C | 91% | 1016.9 hPa | 0 mm | - | - | - |
| 1778163917 | 12.22° C | 92% | 1016.8 hPa | 0 mm | - | - | - |
| 1778163317 | 12.22° C | 92% | 1016.7 hPa | 0 mm | - | - | - |
| 1778162717 | 11.67° C | 92% | 1016.5 hPa | 0 mm | - | - | - |
| 1778162117 | 11.67° C | 92% | 1016.5 hPa | 0 mm | - | - | - |
| 1778161517 | 11.67° C | 91% | 1016.4 hPa | 0 mm | - | - | - |
| 1778160917 | 11.11° C | 92% | 1016.4 hPa | 0 mm | - | - | - |
| 1778160316 | 11.11° C | 91% | 1016.2 hPa | 0 mm | - | - | - |
| 1778159717 | 11.11° C | 91% | 1016.2 hPa | 0 mm | - | - | - |
| 1778159117 | 11.67° C | 91% | 1016.2 hPa | 0 mm | - | - | - |
| 1778158517 | 11.67° C | 91% | 1016.1 hPa | 0 mm | - | - | - |
| 1778157917 | 11.67° C | 91% | 1016 hPa | 0 mm | - | - | - |
| 1778157317 | 11.67° C | 91% | 1016 hPa | 0 mm | - | - | - |
| 1778156717 | 11.67° C | 91% | 1015.9 hPa | 0 mm | - | - | - |
| 1778156117 | 11.67° C | 90% | 1015.9 hPa | 0 mm | - | - | - |
| 1778155517 | 11.67° C | 90% | 1015.8 hPa | 0 mm | - | - | - |
| 1778154917 | 11.67° C | 90% | 1015.7 hPa | 0 mm | - | - | - |
| 1778154317 | 11.67° C | 90% | 1015.7 hPa | 0 mm | - | - | - |
| 1778153717 | 12.22° C | 90% | 1015.7 hPa | 0 mm | - | - | - |
| 1778153117 | 11.67° C | 90% | 1015.8 hPa | 0 mm | - | - | - |
| 1778152516 | 12.22° C | 90% | 1015.8 hPa | 0 mm | - | - | - |
* Rain latest hour (hover to see other rain measurements)
** Current wind speed in m/s (hover to see current wind gust speed)